Regional Weather Roundup
Issued by NWS

Home | Current Version | Previous Version | Graphics & Text | Print | Product List | Glossary On
Versions: 1 2 3 4 5 6 7 8 9 10 11 12 13 14 15 16 17 18 19 20 21 22 23 24 25 26 27 28 29 30 31 32 33 34 35 36 37 38 39 40 41 42 43 44 45 46 47 48 49 50
000
ASUS43 KDMX 180307
RWRIA

WEATHER ROUNDUP FOR IOWA
NATIONAL WEATHER SERVICE DES MOINES IA
900 PM CST WED DEC 17 2014

NOTE: "FAIR" INDICATES FEW OR NO CLOUDS BELOW 12,000 FEET WITH NO
SIGNIFICANT WEATHER AND/OR OBSTRUCTIONS TO VISIBILITY.

* - THESE STATIONS ARE NOT NWS STATIONS...THUS NOT UNDER NWS
QUALITY CONTROL.  THEY ALSO DO NOT REPORT WEATHER SUCH
AS PRECIPITATION OR FOG.

IAZ001>003-012>014-020>022-031>034-043>046-180400-
   NORTHWEST IOWA

CITY           SKY/WX    TMP DP  RH WIND       PRES   REMARKS
CARROLL *      CLOUDY    19  16  86 CALM      30.27F
CHEROKEE *     CLEAR     17  15  94 CALM      30.27R
DENISON *      CLOUDY    23  19  86 E6        30.24F WCI  16
LE MARS *      PTCLDY    16  14  93 CALM      30.27F
ORANGE CITY *  PTCLDY    19  16  86 E3        30.25S
SHELDON *      PTCLDY    16  14  93 E6        30.24R WCI   7
SIOUX CITY     CLOUDY    24  17  74 E6        30.27S WCI  17
SPENCER        CLEAR     16  12  84 NE3       30.26S
STORM LAKE *   CLEAR     16  14  93 E6        30.26R WCI   7
$$

IAZ055>058-069>071-079>083-090>094-180400-
   SOUTHWEST IOWA

CITY           SKY/WX    TMP DP  RH WIND       PRES   REMARKS
ATLANTIC *     CLOUDY    25  19  80 E8        30.27S WCI  16
AUDUBON *      CLOUDY    23  16  74 E5        30.26F WCI  17
CLARINDA *     CLOUDY    28  21  74 VRB5      30.29F WCI  23
COUNCIL BLFS * CLOUDY    27  21  80 E6        30.25R WCI  20
CRESTON *      CLOUDY    25  18  74 E8        30.27S WCI  16
HARLAN  *      CLOUDY    25  21  86 E8        30.29F WCI  16
LAMONI         CLOUDY    27  18  69 E5        30.27S WCI  22
RED OAK *      CLOUDY    28  19  69 E7        30.27F WCI  21
SHENANDOAH *   CLOUDY    28  21  74 E5        30.28S WCI  23
$$

IAZ047>049-059>061-072>074-084-180400-
   CENTRAL IOWA

CITY           SKY/WX    TMP DP  RH WIND       PRES   REMARKS
AMES           CLEAR     19  14  81 CALM      30.31R
ANKENY *       CLEAR     19  16  86 NE5       30.31R WCI  13
CHARITON *     CLOUDY    21  16  79 CALM      30.29R
DES MOINES       N/A     24  16  71 NE3       30.30R
GRINNELL*      PTCLDY    19  15  86 CALM      30.31R
KNOXVILLE *    PTCLDY    23  16  74 N7        30.28F WCI  15
MARSHALLTOWN   CLEAR     17  13  84 CALM      30.29R
PELLA *        CLEAR     19  16  87 N3        30.31F
PERRY *          N/A     21  18  86 CALM      30.30R
$$

IAZ004>006-015-016-023>025-035-036-180400-
   NORTH CENTRAL IOWA

CITY           SKY/WX    TMP DP  RH WIND       PRES   REMARKS
ALGONA *       PTCLDY    16  14  93 NE3       30.27S
CLARION *      PTCLDY    16  14  93 NE6       30.28R WCI   7
ESTHERVILLE    PTCLDY    11   8  88 N7        30.25F WCI   0
FORT DODGE *   CLEAR     18  10  73 E3        30.29R
MASON CITY     PTCLDY    13  10  88 N8        30.28F WCI   2
FOREST CITY *    N/A     14  10  85 N5        30.26F WCI   6
IOWA FALLS *     N/A     17  14  89 CALM      30.29R
$$

IAZ007>011-017>019-026>030-037>042-050>054-066-180400-
   NORTHEAST IOWA

CITY           SKY/WX    TMP DP  RH WIND       PRES   REMARKS
CEDAR RAPIDS   PTCLDY    17  13  84 N5        30.28S WCI  10
CHARLES CITY * CLOUDY    19  18  93 N9        30.26F WCI   9
CLINTON *      CLEAR     18  12  79 CALM      30.32S
DECORAH *      PTCLDY    16  12  86 CALM      30.27S
DUBUQUE        CLEAR     17  13  84 NW5       30.25F WCI  10
MONTICELLO *   CLEAR     18  16  93 CALM      30.28R
OELWEIN *      CLEAR     18  14  86 N9        30.25F WCI   6
WATERLOO       PTCLDY    17  14  88 NW3       30.28F
$$

IAZ064-065-067-068-078-180400-
   EAST CENTRAL IOWA

CITY           SKY/WX    TMP DP  RH WIND       PRES   REMARKS
DAVENPORT      CLEAR     17  13  84 NW3       30.30S
IOWA CITY      PTCLDY    18  14  84 SW6       30.33R WCI  10
MT. PLEASANT * CLEAR     20  17  86 N5        30.31R WCI  14
MUSCATINE *    CLEAR     21  16  79 CALM      30.33R
QUAD CITIES    CLEAR     19  14  81 CALM      30.30S
$$

IAZ062-063-075>077-085>089-095>099-180400-
   SOUTHEAST IOWA

CITY           SKY/WX    TMP DP  RH WIND       PRES   REMARKS
BURLINGTON     PTCLDY    23  18  81 N7        30.30R WCI  15
FAIRFIELD *    PTCLDY    19  14  79 N3        30.31R
FORT MADISON * PTCLDY    25  19  80 N3        30.30S
KEOKUK *       MOCLDY    25  19  80 CALM      30.30S
OSKALOOSA *      N/A     19  16  88 N7        30.31S WCI   9
CENTERVILLE *  CLOUDY    25  19  80 NE3       30.30S
OTTUMWA        PTCLDY    21  15  78 N7        30.30S WCI  12
WASHINGTON *   PTCLDY    19  18  93 N3        30.31R
$$

ABBREVIATIONS USED IN REMARKS
   TC - TEMPERATURES IN CELSIUS
  WCI - WIND CHILL INDEX
   HX - HEAT INDEX
  VSB - VISIBILITY
$$




USA.gov is the U.S. government's official web portal to all federal, state and local government web resources and services.